TimeCDT,TemperatureF,Dew PointF,Humidity,Sea Level PressureIn,VisibilityMPH,Wind Direction,Wind SpeedMPH,Gust SpeedMPH,PrecipitationIn,Events,Conditions,WindDirDegrees,DateUTC
12:15 AM,78.3,73.0,84,29.88,10.0,SE,13.8,17.3,N/A,,Scattered Clouds,130,2013-05-29 05:15:00
12:35 AM,78.3,72.7,83,29.88,10.0,SE,12.7,-,N/A,,Scattered Clouds,130,2013-05-29 05:35:00
12:55 AM,78.1,72.7,83,29.88,10.0,SE,11.5,-,N/A,,Scattered Clouds,130,2013-05-29 05:55:00
1:15 AM,78.3,72.5,82,29.88,10.0,SE,10.4,16.1,N/A,,Mostly Cloudy,130,2013-05-29 06:15:00
1:35 AM,78.3,72.5,82,29.87,10.0,SE,12.7,20.7,N/A,,Scattered Clouds,130,2013-05-29 06:35:00
1:55 AM,78.3,72.5,82,29.87,10.0,SE,11.5,-,N/A,,Scattered Clouds,130,2013-05-29 06:55:00
2:15 AM,78.4,72.5,82,29.88,10.0,SE,10.4,-,N/A,,Scattered Clouds,130,2013-05-29 07:15:00
2:35 AM,78.4,72.7,82,29.88,10.0,SE,10.4,-,N/A,,Mostly Cloudy,140,2013-05-29 07:35:00
2:55 AM,78.6,72.9,82,29.88,10.0,SE,9.2,-,N/A,,Mostly Cloudy,140,2013-05-29 07:55:00
3:15 AM,78.6,73.4,84,29.88,10.0,SE,8.1,-,N/A,,Scattered Clouds,130,2013-05-29 08:15:00
3:35 AM,78.4,73.4,84,29.87,10.0,SE,10.4,-,N/A,,Scattered Clouds,140,2013-05-29 08:35:00
3:55 AM,78.4,73.4,84,29.88,10.0,SE,10.4,-,N/A,,Mostly Cloudy,140,2013-05-29 08:55:00
4:15 AM,78.6,73.4,84,29.88,10.0,SE,8.1,-,N/A,,Mostly Cloudy,140,2013-05-29 09:15:00
4:35 AM,78.3,73.6,85,29.87,10.0,SE,9.2,-,N/A,,Scattered Clouds,140,2013-05-29 09:35:00
4:55 AM,78.3,73.4,85,29.87,10.0,SE,11.5,-,N/A,,Scattered Clouds,140,2013-05-29 09:55:00
5:15 AM,78.1,73.4,85,29.86,10.0,SE,10.4,-,N/A,,Scattered Clouds,140,2013-05-29 10:15:00
5:35 AM,78.1,73.4,85,29.86,10.0,SE,10.4,-,N/A,,Scattered Clouds,140,2013-05-29 10:35:00
5:55 AM,78.1,73.8,86,29.85,10.0,SE,9.2,-,N/A,,Scattered Clouds,140,2013-05-29 10:55:00
6:15 AM,78.1,73.8,86,29.85,10.0,SE,9.2,-,N/A,,Scattered Clouds,140,2013-05-29 11:15:00
6:35 AM,78.1,73.9,87,29.85,10.0,SE,9.2,-,N/A,,Scattered Clouds,140,2013-05-29 11:35:00
6:55 AM,77.9,73.9,88,29.86,10.0,SE,8.1,-,N/A,,Scattered Clouds,140,2013-05-29 11:55:00
7:15 AM,77.9,74.1,88,29.86,10.0,SE,8.1,-,N/A,,Scattered Clouds,140,2013-05-29 12:15:00
7:35 AM,78.6,74.5,87,29.86,10.0,SSE,8.1,-,N/A,,Mostly Cloudy,150,2013-05-29 12:35:00
7:55 AM,79.2,74.7,86,29.86,10.0,SE,10.4,-,N/A,,Mostly Cloudy,140,2013-05-29 12:55:00
8:15 AM,79.9,74.8,85,29.86,10.0,SSE,13.8,17.3,N/A,,Scattered Clouds,150,2013-05-29 13:15:00
8:35 AM,80.6,75.0,83,29.86,10.0,SSE,15.0,18.4,N/A,,Mostly Cloudy,150,2013-05-29 13:35:00
8:55 AM,81.5,75.2,81,29.87,10.0,SSE,12.7,-,N/A,,Mostly Cloudy,150,2013-05-29 13:55:00
9:15 AM,82.4,74.8,78,29.88,10.0,SSE,15.0,23.0,N/A,,Mostly Cloudy,160,2013-05-29 14:15:00
9:35 AM,82.2,74.8,78,29.88,10.0,SSE,15.0,20.7,N/A,,Overcast,150,2013-05-29 14:35:00
9:55 AM,82.6,75.0,78,29.88,10.0,SSE,16.1,19.6,N/A,,Mostly Cloudy,150,2013-05-29 14:55:00
10:15 AM,82.4,75.0,78,29.87,10.0,SSE,16.1,23.0,N/A,,Mostly Cloudy,160,2013-05-29 15:15:00
10:35 AM,82.6,75.0,78,29.88,10.0,SSE,13.8,23.0,N/A,,Overcast,150,2013-05-29 15:35:00
10:55 AM,83.1,74.8,76,29.88,10.0,SSE,18.4,21.9,N/A,,Overcast,160,2013-05-29 15:55:00
11:15 AM,83.7,74.8,75,29.88,10.0,SSE,15.0,25.3,N/A,,Mostly Cloudy,160,2013-05-29 16:15:00
11:35 AM,83.7,74.5,74,29.87,10.0,SSE,15.0,26.5,N/A,,Mostly Cloudy,150,2013-05-29 16:35:00
11:55 AM,83.8,74.5,73,29.87,10.0,SSE,16.1,26.5,N/A,,Mostly Cloudy,150,2013-05-29 16:55:00
12:15 PM,84.0,74.1,72,29.87,10.0,SSE,19.6,27.6,N/A,,Overcast,150,2013-05-29 17:15:00
12:35 PM,84.6,73.8,70,29.86,10.0,SSE,21.9,27.6,N/A,,Mostly Cloudy,160,2013-05-29 17:35:00
12:55 PM,85.3,73.6,68,29.86,10.0,SSE,19.6,25.3,N/A,,Mostly Cloudy,150,2013-05-29 17:55:00
1:15 PM,85.3,73.6,68,29.86,10.0,SSE,13.8,24.2,N/A,,Mostly Cloudy,150,2013-05-29 18:15:00
1:35 PM,85.5,73.6,67,29.85,10.0,SSE,17.3,23.0,N/A,,Mostly Cloudy,150,2013-05-29 18:35:00
1:55 PM,85.3,73.4,67,29.85,10.0,SSE,18.4,24.2,N/A,,Mostly Cloudy,150,2013-05-29 18:55:00
2:15 PM,84.7,73.6,69,29.84,10.0,SE,20.7,24.2,N/A,,Mostly Cloudy,140,2013-05-29 19:15:00
2:35 PM,84.6,73.6,69,29.83,10.0,SE,17.3,26.5,N/A,,Mostly Cloudy,140,2013-05-29 19:35:00
2:55 PM,84.4,73.4,69,29.84,10.0,SE,19.6,24.2,N/A,,Mostly Cloudy,140,2013-05-29 19:55:00
3:15 PM,84.0,73.9,72,29.83,10.0,SE,17.3,25.3,N/A,,Mostly Cloudy,140,2013-05-29 20:15:00
3:35 PM,83.5,74.1,73,29.83,10.0,SE,18.4,23.0,N/A,,Overcast,140,2013-05-29 20:35:00
3:55 PM,83.5,74.3,74,29.83,10.0,SE,16.1,24.2,N/A,,Overcast,140,2013-05-29 20:55:00
4:15 PM,83.3,74.3,74,29.81,10.0,SE,16.1,24.2,N/A,,Mostly Cloudy,140,2013-05-29 21:15:00
4:35 PM,83.5,74.1,73,29.81,10.0,SE,13.8,25.3,N/A,,Mostly Cloudy,130,2013-05-29 21:35:00
4:55 PM,83.3,74.3,74,29.81,10.0,SE,12.7,-,N/A,,Mostly Cloudy,140,2013-05-29 21:55:00
5:15 PM,83.1,74.3,75,29.80,10.0,SE,16.1,23.0,N/A,,Overcast,130,2013-05-29 22:15:00
5:35 PM,82.9,74.3,75,29.81,10.0,SE,12.7,16.1,N/A,,Overcast,130,2013-05-29 22:35:00
5:55 PM,82.6,74.7,77,29.80,10.0,SE,13.8,19.6,N/A,,Mostly Cloudy,130,2013-05-29 22:55:00
6:15 PM,82.9,74.8,76,29.81,10.0,SE,12.7,-,N/A,,Mostly Cloudy,140,2013-05-29 23:15:00
6:35 PM,83.7,74.8,75,29.80,10.0,SE,13.8,19.6,N/A,,Mostly Cloudy,130,2013-05-29 23:35:00
6:55 PM,83.5,74.5,74,29.80,10.0,SE,11.5,-,N/A,,Mostly Cloudy,140,2013-05-29 23:55:00
7:15 PM,82.8,74.7,76,29.81,10.0,SE,13.8,17.3,N/A,,Mostly Cloudy,140,2013-05-30 00:15:00
7:35 PM,82.2,74.5,77,29.81,10.0,SE,13.8,-,N/A,,Mostly Cloudy,130,2013-05-30 00:35:00
7:55 PM,81.1,74.5,80,29.81,10.0,SSE,12.7,18.4,N/A,,Scattered Clouds,150,2013-05-30 00:55:00
8:15 PM,80.8,74.5,81,29.82,10.0,SE,11.5,16.1,N/A,,Scattered Clouds,140,2013-05-30 01:15:00
8:35 PM,79.9,74.7,84,29.82,10.0,SE,11.5,-,N/A,,Clear,130,2013-05-30 01:35:00
8:55 PM,79.5,74.8,86,29.82,10.0,SE,10.4,-,N/A,,Scattered Clouds,130,2013-05-30 01:55:00
9:15 PM,79.2,74.7,86,29.82,10.0,SE,13.8,18.4,N/A,,Clear,130,2013-05-30 02:15:00
9:35 PM,79.0,74.7,87,29.83,10.0,SE,10.4,-,N/A,,Scattered Clouds,140,2013-05-30 02:35:00
9:55 PM,79.0,74.5,86,29.83,10.0,SE,9.2,17.3,N/A,,Scattered Clouds,140,2013-05-30 02:55:00
10:15 PM,79.0,74.7,87,29.83,10.0,SE,9.2,-,N/A,,Scattered Clouds,140,2013-05-30 03:15:00
10:35 PM,79.0,75.0,88,29.84,10.0,SE,10.4,-,N/A,,Scattered Clouds,140,2013-05-30 03:35:00
10:55 PM,79.0,75.0,88,29.85,10.0,SE,10.4,16.1,N/A,,Clear,140,2013-05-30 03:55:00
11:15 PM,78.8,74.8,88,29.84,10.0,SE,9.2,-,N/A,,Clear,140,2013-05-30 04:15:00
11:35 PM,78.8,75.2,89,29.85,10.0,SE,10.4,-,N/A,,Scattered Clouds,130,2013-05-30 04:35:00
11:55 PM,78.8,75.0,88,29.85,10.0,SE,8.1,-,N/A,,Scattered Clouds,140,2013-05-30 04:55:00